Regional Weather Roundup
Issued by NWS

Home | Current Version | Previous Version | Text Only | Print | Product List | Glossary Off
Versions: 1 2 3 4 5 6 7 8 9 10 11 12 13 14 15 16 17 18 19 20 21 22 23 24 25 26 27 28 29 30 31 32 33 34 35 36 37 38 39 40 41 42 43 44 45 46 47 48 49 50

497
ASUS45 KPSR 070210
RWRAZ

ARIZONA HOURLY REGIONAL WEATHER ROUNDUP
NATIONAL WEATHER SERVICE PHOENIX AZ
700 PM MST SAT FEB 06 2016

NOTE: FAIR INDICATES FEW OR NO CLOUDS BELOW 12,000 FEET WITH NO
SIGNIFICANT WEATHER AND/OR OBSTRUCTIONS TO VISIBILITY.

AZZ001>003-036-070300-
NORTHWEST ARIZONA

CITY           SKY/WX    TMP DP  RH WIND       PRES   REMARKS
BULLHEAD CITY  CLEAR     63  25  23 N13G22    30.27R
KINGMAN        CLEAR     46  22  38 E6        30.31R
$$

AZZ004>008-015-016-018-070300-
NORTH CENTRAL ARIZONA

CITY           SKY/WX    TMP DP  RH WIND       PRES   REMARKS
GRAND CANYON   CLEAR     32  16  51 CALM      30.39S
WILLIAMS       CLEAR     34  19  55 S7        30.42S WCI  28
PRESCOTT       CLEAR     44  16  32 CALM      30.32S
FLAGSTAFF      CLEAR     30  16  56 CALM      30.40S
PAYSON         CLEAR     48  18  29 NE10      30.33R
PAGE           CLEAR     33  22  63 E6        30.43R WCI  28
$$

AZZ009>014-017-070300-
NORTHEAST ARIZONA

CITY           SKY/WX    TMP DP  RH WIND       PRES   REMARKS
WINSLOW        CLEAR     31  14  49 W6        30.41S WCI  25
SAINT JOHNS    PTCLDY    33  15  47 NW7       30.38R WCI  27
WINDOW ROCK    CLEAR     35   0  22 E7        30.39S WCI  29
SHOW LOW       CLEAR     32  14  47 CALM      30.41R
$$

AZZ023-070300-
GREATER PHOENIX AREA

CITY           SKY/WX    TMP DP  RH WIND       PRES   REMARKS
PHOENIX        PTCLDY    70  12  10 NW6       30.17R
BUCKEYE        CLEAR     57  27  30 NW3       30.20S
GLENDALE       PTCLDY    66  18  15 CALM      30.19S
LUKE AFB       CLEAR     63  24  22 CALM      30.17R
DEER VALLEY    CLEAR     63  17  17 CALM      30.18R
SCOTTSDALE     CLEAR     65  16  15 N3        30.20R
MESA-FALCON    CLEAR    N/A N/A N/A N6        30.18R
MESA-GATEWAY   PTCLDY    64  21  19 NW3       30.18R
CHANDLER       CLEAR     64  16  15 W6        30.17S
$$

AZZ027-028-070300-
SOUTHWEST MARICOPA COUNTY AND PINAL COUNTY

CITY           SKY/WX    TMP DP  RH WIND       PRES   REMARKS
CASA GRANDE    CLEAR     61  18  18 NW8       30.18S
GILA BEND      FAIR      62  19  18 N3        30.17R
$$

AZZ503-504-507>509-070300-
SOUTHEAST ARIZONA

CITY           SKY/WX    TMP DP  RH WIND       PRES   REMARKS
TUCSON         PTCLDY    64  11  12 NE5       30.21R
DAVIS-MONTHAN  PTCLDY    60  10  13 CALM      30.19R
RYAN FIELD     CLEAR     63  23  22 CALM      30.20R
NOGALES        MOCLDY    56   6  13 NE8       30.22R
SIERRA VISTA   MOCLDY    53   3  13 E2        30.28R
DOUGLAS        MOCLDY    44   6  21 NE8       30.27R
SAFFORD        CLEAR     49  12  22 MISG      30.27R
$$

AZZ020-021-025-026-031-070300-
SOUTHWEST ARIZONA

CITY           SKY/WX    TMP DP  RH WIND       PRES   REMARKS
YUMA           CLEAR     66  19  16 N9        30.19S
$$

CAZ031-033-041-043-047-048-061-070300-
SOUTHERN CALIFORNIA

CITY           SKY/WX    TMP DP  RH WIND       PRES   REMARKS
DOWNTOWN L.A.  CLEAR     67  27  22 CALM      30.13S
L.A. AIRPORT   CLEAR     66  27  23 W8        30.14S
SAN DIEGO      PTCLDY    68  25  19 NW8       30.14R
BURBANK        CLEAR     68  24  19 CALM      30.15R
ONTARIO        CLEAR     70  17  13 CALM      30.15R
RIVERSIDE      CLEAR     71  17  12 NE10G16   30.17R
PALM SPRINGS   CLEAR     69  23  17 VRB3      30.23R
EL CENTRO NAS  CLEAR     64  22  20 W6        30.22S
IMPERIAL       CLEAR     65  25  22 W3        30.20S
BLYTHE         CLEAR     63  22  20 N8        30.22S
NEEDLES        CLEAR     62  24  23 N12       30.26R
$$

NVZ020-UTZ003-070300-
SOUTHERN NEVADA-UTAH

CITY           SKY/WX    TMP DP  RH WIND       PRES   REMARKS
LAS VEGAS      PTCLDY    57  23  26 S3        30.28F
SALT LAKE CITY PTCLDY    31  24  75 NW3       30.46R
$$

NMZ009-TXZ055-070300-
NEW MEXICO-WEST TEXAS

CITY           SKY/WX    TMP DP  RH WIND       PRES   REMARKS
ALBUQUERQUE    CLOUDY    42  15  33 N9        30.36R
EL PASO        MOCLDY    48   4  16 S3        30.31S
$$


........................KEY........................
SKY/WX - SKY CONDITION/WEATHER
TMP    - TEMPERATURE IN FAHRENHEIT
DP     - DEW POINT IN FAHRENHEIT
RH     - RELATIVE HUMIDITY IN PERCENT
WIND   - DIRECTION AND SPEED IN MILES PER HOUR (MPH)
VRB    - VARIABLE WIND DIRECTION
PRES   - MEAN SEA LEVEL PRESSURE IN INCHES OF MERCURY
         F - FALLING PRESSURE   R - RISING PRESSURE
         S - STEADY PRESSURE
VSB    - VISIBILITY IN MILES
HX     - HEAT INDEX IN FAHRENHEIT
WCI    - WIND CHILL INDEX IN FAHRENHEIT
TC     - TEMPERATURE IN CELSIUS WHICH IS ALSO KNOWN AS
         TEMPERATURE IN CENTIGRADE
AFB    - AIR FORCE BASE
         LUKE AFB IS LUKE AIR FORCE BASE
         DAVIS-MONTHAN IS DAVIS-MONTHAN AIR FORCE BASE
NAS    - NAVAL AIR STATION
         EL CENTRO NAS IS EL CENTRO NAVAL AIR STATION
N/A    - NOT AVAILABLE





USA.gov is the U.S. government's official web portal to all federal, state and local government web resources and services.